Change the Weather History Date:

Friday, October 5, 2012

  Actual Average Record
Temperature  
Mean Temperature 68 °F -  
Max Temperature 80 °F 79 °F 93 °F (1998)
Min Temperature 57 °F 58 °F 48 °F (2001)
Cooling Degree Days 3    
Growing Degree Days 18 (Base 50)    
Moisture  
Dew Point 60 °F    
Average Humidity 79    
Maximum Humidity 94    
Minimum Humidity 62    
Precipitation  
Precipitation 0.00 in - - ()
Sea Level Pressure  
Sea Level Pressure 30.05 in    
Wind  
Wind Speed 5 mph (NW)    
Max Wind Speed 17 mph    
Max Gust Speed 25 mph    
Visibility 10 miles    
Events      
Averages and records for this station are not official NWS values.
T = Trace of Precipitation, MM = Missing Value Source: NWS Daily Summary

Daily Weather History Graph

Daily Weather History Graph

Search for Another Location

Airport or City:

Trip Planner

Search our weather history database for the weather conditions in past years. The results will help you decide how hot, cold, wet, or windy it might be!

Date:

Astronomy

Oct. 05, 2012 Rise Set
Actual Time 7:26 AM CDT 7:08 PM CDT
Civil Twilight 7:02 AM CDT 7:32 PM CDT
Nautical Twilight 6:33 AM CDT 8:01 PM CDT
Astronomical Twilight 6:04 AM CDT 8:29 PM CDT
Moon 10:47 PM CDT (10/5) 12:20 PM CDT (10/5)
Length of Visible Light 12h 30m
Length of Day
11h 41m
Waning Gibbous, 74% of the Moon is Illuminated
Oct 5
Waning Gibbous
Oct 8
Last Quarter
Oct 15
New
Oct 21
First Quarter
Oct 29
Full

Hourly Weather History & Observations

Time (CDT) Temp. Dew Point Humidity Pressure Visibility Wind Dir Wind Speed Gust Speed Precip Events Conditions
12:53 AM 66.9 °F 61.0 °F 81% 30.05 in 10.0 mi WNW 3.5 mph - N/A   Overcast
1:10 AM 66.2 °F 60.8 °F 83% 30.07 in 10.0 mi NW 5.8 mph - N/A   Overcast
1:53 AM 68.0 °F 62.1 °F 81% 30.04 in 10.0 mi Calm Calm - N/A   Overcast
2:35 AM 66.2 °F 62.6 °F 88% 30.06 in 10.0 mi Calm Calm - N/A   Mostly Cloudy
2:53 AM 66.2 °F 62.6 °F 88% 30.06 in 10.0 mi Calm Calm - N/A   Partly Cloudy
3:53 AM 64.9 °F 61.0 °F 87% 30.04 in 10.0 mi Calm Calm - N/A   Partly Cloudy
4:18 AM 64.4 °F 62.6 °F 94% 30.07 in 10.0 mi West 5.8 mph - N/A   Mostly Cloudy
4:53 AM 64.9 °F 62.1 °F 90% 30.05 in 10.0 mi West 5.8 mph - N/A   Overcast
5:49 AM 64.4 °F 60.8 °F 88% 30.06 in 10.0 mi Calm Calm - N/A   Overcast
5:53 AM 64.9 °F 62.1 °F 90% 30.04 in 10.0 mi WSW 3.5 mph - N/A   Overcast
6:29 AM 64.4 °F 62.6 °F 94% 30.07 in 10.0 mi West 4.6 mph - N/A   Overcast
6:53 AM 64.9 °F 61.0 °F 87% 30.06 in 10.0 mi WNW 6.9 mph - N/A   Overcast
7:53 AM 64.9 °F 61.0 °F 87% 30.06 in 10.0 mi West 4.6 mph - N/A   Overcast
8:53 AM 66.0 °F 61.0 °F 84% 30.07 in 10.0 mi WNW 5.8 mph - N/A   Overcast
9:53 AM 68.0 °F 61.0 °F 78% 30.07 in 10.0 mi West 4.6 mph - N/A   Overcast
10:53 AM 69.1 °F 61.0 °F 75% 30.08 in 10.0 mi NW 5.8 mph - N/A   Overcast
11:21 AM 69.8 °F 60.8 °F 73% 30.11 in 10.0 mi NW 6.9 mph - N/A   Overcast
11:53 AM 70.0 °F 61.0 °F 73% 30.08 in 10.0 mi WNW 4.6 mph - N/A   Overcast
12:53 PM 75.0 °F 64.0 °F 69% 30.06 in 10.0 mi Variable 4.6 mph - N/A   Mostly Cloudy
1:53 PM 77.0 °F 64.9 °F 66% 30.03 in 10.0 mi West 6.9 mph - N/A   Scattered Clouds
2:53 PM 77.0 °F 64.9 °F 66% 30.01 in 10.0 mi West 8.1 mph - N/A   Overcast
3:53 PM 79.0 °F 64.9 °F 62% 29.99 in 10.0 mi NNW 10.4 mph - N/A   Clear
4:53 PM 77.0 °F 64.0 °F 64% 29.98 in 10.0 mi NNW 12.7 mph - N/A   Scattered Clouds
5:53 PM 75.0 °F 62.1 °F 64% 29.98 in 10.0 mi North 11.5 mph 16.1 mph N/A   Overcast
6:53 PM 72.0 °F 60.1 °F 66% 29.99 in 10.0 mi North 12.7 mph - N/A   Partly Cloudy
7:53 PM 63.0 °F 53.1 °F 70% 30.03 in 10.0 mi North 17.3 mph 25.3 mph N/A   Partly Cloudy
8:53 PM 61.0 °F 53.1 °F 75% 30.06 in 10.0 mi NNE 16.1 mph - N/A   Overcast
9:53 PM 60.1 °F 53.1 °F 78% 30.08 in 10.0 mi NNE 13.8 mph - N/A   Overcast
10:53 PM 57.9 °F 51.1 °F 78% 30.09 in 10.0 mi NNE 16.1 mph - N/A   Overcast
11:53 PM 57.0 °F 50.0 °F 77% 30.10 in 10.0 mi NNE 15.0 mph - N/A   Overcast